"Pseudo-MPEC" for P10OXaO

Created 2019 Jun 18 13:07:56 UT using Find_Orb

Click here for an explanation of pseudo-MPECs

 
 Astrometry: 
     P10OXaO  C2019 06 11cYAstrometryPs^$d0P1w%redacted;Ywc#i44'2@'6MQ4Ns%6_0F51
     P10OXaO  C2019 06 11/wclickhM-?8^Dr6aOYOhere=`b]gRer@mEEs[*]D'Krhj0'i\=*F51
     P10OXaO  C2019 06 11fvZ)\vA$N,vnyvmforLWR/3ZN%8]nux;vexplanation2x2b?66KF51

Station data:
(F51) Pan-STARRS 1, Haleakala  (N20.707235 W156.255910)  US/Hawaii.
   Observers N. Primak, A. Schultz, S. Watters, J. Thiel, T. Goggia. Measurer
   PS1 Science Consortium. 1.8-m Ritchey-Chrétien + CCD.

Orbital elements:  P10OXaO
   Perihelion 2020 Oct 22.882462 +/- 382 TT = 21:10:44 (JD 2459145.382462)
Epoch 2019 Jun 12.0 TT = JDT 2458646.5   Earth MOID: 0.4575   AutoNEOCP
M 271.74451456 +/- 80               (J2000 ecliptic)
n   0.17690637 +/- 0.374            Peri.  259.00853 +/- 70
a   3.14272997 +/- 4.43             Node   204.99038 +/- 58
e   0.5815447 +/- 0.225             Incl.   16.64720 +/- 35
P   5.57                   H 15.4   G  0.15   U 12.1  SR
q 1.31509197 +/- 1.98    Q 4.97036797 +/- 58.8
From 3 observations 2019 June 11 (56.2 min); mean residual 0".09
Residuals in arcseconds: 
190611 F51  .01-  .06+    190611 F51  .03+  .16-    190611 F51  .02-  .11+    

Ephemerides (geocentric):
Date (UTC) HH   RA              Dec         delta   r     elong  mag " sig PA
---- -- -- --  -------------   -----------  ------ ------ -----  --- ---- ---
2019 06 18 13  21 59 19.171   +06 12 40.85  3.4814 3.9677 111.5 21.9  31d   1
2019 06 18 14  21 59 19.034   +06 12 49.51  3.4807 3.9676 111.5 21.9  31d   1
2019 06 18 15  21 59 18.895   +06 12 58.17  3.4800 3.9674 111.6 21.9  31d   1
2019 06 18 16  21 59 18.755   +06 13 06.82  3.4793 3.9672 111.6 21.9  31d   1
2019 06 18 17  21 59 18.613   +06 13 15.46  3.4785 3.9671 111.6 21.9  31d   1
2019 06 18 18  21 59 18.470   +06 13 24.09  3.4778 3.9669 111.7 21.9  31d   1
2019 06 18 19  21 59 18.324   +06 13 32.72  3.4771 3.9667 111.7 21.9  31d   1
2019 06 18 20  21 59 18.177   +06 13 41.33  3.4764 3.9666 111.7 21.9  31d   1
2019 06 18 21  21 59 18.029   +06 13 49.94  3.4757 3.9664 111.8 21.9  31d   1
2019 06 18 22  21 59 17.879   +06 13 58.53  3.4749 3.9662 111.8 21.9  31d   1
2019 06 18 23  21 59 17.727   +06 14 07.12  3.4742 3.9661 111.8 21.9  31d   1
2019 06 19 00  21 59 17.573   +06 14 15.69  3.4735 3.9659 111.9 21.9  31d   1
2019 06 19 01  21 59 17.418   +06 14 24.26  3.4728 3.9657 111.9 21.9  31d   1
2019 06 19 02  21 59 17.261   +06 14 32.82  3.4720 3.9656 112.0 21.9  31d   1
2019 06 19 03  21 59 17.103   +06 14 41.37  3.4713 3.9654 112.0 21.9  31d   1
2019 06 19 04  21 59 16.943   +06 14 49.91  3.4706 3.9652 112.0 21.9  31d   1
2019 06 19 05  21 59 16.781   +06 14 58.44  3.4699 3.9651 112.1 21.9  31d   1
2019 06 19 06  21 59 16.618   +06 15 06.96  3.4691 3.9649 112.1 21.9  31d 179
2019 06 19 07  21 59 16.452   +06 15 15.47  3.4684 3.9647 112.1 21.9  34d 178
2019 06 19 08  21 59 16.286   +06 15 23.98  3.4677 3.9646 112.2 21.9  35d 179
2019 06 19 09  21 59 16.117   +06 15 32.47  3.4670 3.9644 112.2 21.9  35d   0
2019 06 19 10  21 59 15.947   +06 15 40.96  3.4663 3.9642 112.3 21.9  35d   0
2019 06 19 11  21 59 15.776   +06 15 49.43  3.4655 3.9641 112.3 21.9  35d   1
2019 06 19 12  21 59 15.602   +06 15 57.90  3.4648 3.9639 112.3 21.9  35d   1
2019 06 19 13  21 59 15.427   +06 16 06.36  3.4641 3.9637 112.4 21.9  35d   1
2019 06 19 14  21 59 15.251   +06 16 14.80  3.4634 3.9636 112.4 21.9  35d   1
2019 06 19 15  21 59 15.072   +06 16 23.24  3.4626 3.9634 112.4 21.9  35d   1
2019 06 19 16  21 59 14.892   +06 16 31.67  3.4619 3.9632 112.5 21.9  35d   1
2019 06 19 17  21 59 14.711   +06 16 40.09  3.4612 3.9631 112.5 21.9  35d   1
2019 06 19 18  21 59 14.527   +06 16 48.50  3.4605 3.9629 112.6 21.9  35d   1
2019 06 19 19  21 59 14.343   +06 16 56.91  3.4598 3.9627 112.6 21.9  35d   1
2019 06 19 20  21 59 14.156   +06 17 05.30  3.4590 3.9626 112.6 21.9  35d   1
2019 06 19 21  21 59 13.968   +06 17 13.68  3.4583 3.9624 112.7 21.9  35d   1
2019 06 19 22  21 59 13.778   +06 17 22.05  3.4576 3.9622 112.7 21.9  35d   1
2019 06 19 23  21 59 13.586   +06 17 30.42  3.4569 3.9621 112.7 21.9  35d   1
2019 06 20 00  21 59 13.393   +06 17 38.77  3.4562 3.9619 112.8 21.9  35d   1
2019 06 20 01  21 59 13.198   +06 17 47.12  3.4554 3.9617 112.8 21.9  35d   1
2019 06 20 02  21 59 13.001   +06 17 55.45  3.4547 3.9616 112.9 21.9  35d   1
2019 06 20 03  21 59 12.803   +06 18 03.78  3.4540 3.9614 112.9 21.9  35d   2
2019 06 20 04  21 59 12.603   +06 18 12.10  3.4533 3.9612 112.9 21.9  35d   2
2019 06 20 05  21 59 12.402   +06 18 20.40  3.4526 3.9611 113.0 21.9  35d   2
2019 06 20 06  21 59 12.199   +06 18 28.70  3.4519 3.9609 113.0 21.9  35d   2
2019 06 20 07  21 59 11.994   +06 18 36.99  3.4511 3.9607 113.0 21.9  35d   2
2019 06 20 08  21 59 11.787   +06 18 45.27  3.4504 3.9606 113.1 21.9  35d   2
2019 06 20 09  21 59 11.579   +06 18 53.54  3.4497 3.9604 113.1 21.9  35d   2
2019 06 20 10  21 59 11.369   +06 19 01.80  3.4490 3.9602 113.1 21.9  35d   2
2019 06 20 11  21 59 11.158   +06 19 10.05  3.4483 3.9601 113.2 21.9  35d   2
2019 06 20 12  21 59 10.944   +06 19 18.29  3.4475 3.9599 113.2 21.9  35d   2